Flag for Poland Weather past 2 weeks in Bytom, Poland

Now
39 °F

Fog.


Feels Like: 36 °F
Forecast: 38 / 53 °F
Wind: 5 mph from Southeast

Location: Katowice Airport

Current Time: Oct 26, 2014 at 8:55:02 AM

Latest Report: Oct 26, 2014 at 8:00 AM


Visibility: 2 mi

Pressure: 30.36 "Hg

Humidity: 93%

Dew point: 37 °F

Location of BytomLocation

Historic Weather in Bytom — Graph

°F

Bytom temperature yesterday

Maximum temperature yesterday: 50 °F (at 1:30 PM)
Minimum temperature yesterday: 32 °F (at 4:00 AM)
Average temperature yesterday: 40 °F

Past Weeks' High & Low Weather Summary

 TemperatureHumidityPressure
High75 °F (Oct 11, 3:00 PM)100% (Oct 11, 8:00 AM)30.36 "Hg (Oct 11, 8:00 AM)
Low32 °F (Oct 25, 4:00 AM)50% (Oct 11, 3:00 PM)29.53 "Hg (Oct 22, 3:00 AM)
Average52 °F88%29.96 "Hg
* Reported Oct 11 8:00 AM — Oct 26 7:30 AM, Bytom, Weather by CustomWeather, © 2014

Note: Actual official high and low records may vary slightly from our data, if they occured in-between our weather recording intervals... More about our weather records

Advertising

Bytom weather history for previous 24 hours

 ConditionsComfort  
Time TempWeatherWind HumidityBarometerVisibility
7:30 AM
Oct 26
39 °FFog.2 mph93%30.36 "Hg1 mi
7:00 AM39 °FFog.5 mph93%30.36 "Hg1 mi
6:30 AM39 °FFog.3 mph93%30.33 "Hg1 mi
6:00 AM39 °FFog.3 mph93%30.33 "Hg2 mi
5:30 AM37 °FFog.3 mph93%30.33 "Hg2 mi
5:00 AM37 °FFog.5 mph93%30.33 "Hg2 mi
4:30 AM39 °FFog.5 mph93%30.33 "Hg2 mi
4:00 AM39 °FFog.2 mph93%30.33 "Hg2 mi
3:30 AM37 °FFog.3 mph93%30.33 "Hg2 mi
3:00 AM37 °FFog.5 mph93%30.33 "Hg2 mi
2:30 AM36 °FFog.5 mph100%30.33 "Hg1 mi
2:00 AM36 °FFog.7 mph93%30.33 "Hg1 mi
2:30 AM36 °FFog.3 mph93%30.30 "Hg1 mi
2:00 AM36 °FFog.3 mph93%30.30 "Hg2 mi
1:30 AM37 °FFog.3 mph93%30.30 "Hg2 mi
1:00 AM39 °FFog.5 mph87%30.30 "Hg2 mi
12:30 AM39 °FFog.5 mph87%30.30 "Hg3 mi
12:00 AM41 °FFog.2 mph87%30.30 "Hg3 mi
11:30 PM
Oct 25
39 °FFog.3 mph93%30.30 "Hg3 mi
11:00 PM39 °FFog.2 mph93%30.27 "Hg3 mi
10:30 PM39 °FFog.3 mph93%30.27 "Hg3 mi
10:00 PM41 °FFog.5 mph87%30.27 "Hg3 mi
9:30 PM41 °FPartly cloudy.6 mph87%30.27 "Hg4 mi
9:00 PM41 °FPartly cloudy.7 mph87%30.27 "Hg4 mi
8:30 PM41 °FPassing clouds.6 mph87%30.27 "Hg4 mi
8:00 PM43 °FPassing clouds.5 mph81%30.27 "Hg5 mi
7:30 PM43 °FPassing clouds.7 mph81%30.27 "Hg5 mi
7:00 PM45 °FPassing clouds.7 mph81%30.24 "Hg5 mi
6:30 PM45 °FPartly sunny.7 mph81%30.24 "Hg5 mi
6:00 PM46 °FPartly sunny.5 mph76%30.24 "Hg5 mi
5:30 PM46 °FPartly sunny.1 mph82%30.24 "Hg5 mi
5:00 PM48 °FPartly sunny.2 mph76%30.24 "Hg4 mi
4:30 PM50 °FScattered clouds.3 mph67%30.24 "HgN/A
4:00 PM50 °FScattered clouds.5 mph67%30.24 "HgN/A
3:30 PM50 °FPartly sunny.3 mph67%30.24 "HgN/A
3:00 PM50 °FPartly sunny.3 mph67%30.24 "HgN/A
2:30 PM48 °FPartly sunny.3 mph66%30.24 "HgN/A
2:00 PM48 °FScattered clouds.6 mph66%30.24 "HgN/A
1:30 PM50 °FPassing clouds.6 mph62%30.24 "HgN/A
1:00 PM48 °FPassing clouds.6 mph66%30.24 "HgN/A
12:30 PM48 °FPartly sunny.6 mph66%30.24 "HgN/A
12:00 PM46 °FScattered clouds.6 mph66%30.24 "HgN/A
11:30 AM45 °FScattered clouds.7 mph71%30.24 "HgN/A
11:00 AM43 °FPassing clouds.6 mph71%30.24 "HgN/A
10:30 AM41 °FPassing clouds.6 mph76%30.24 "HgN/A
10:00 AM39 °FPartly sunny.7 mph75%30.24 "HgN/A
9:30 AM36 °FPartly sunny.5 mph87%30.24 "HgN/A
9:00 AM36 °FPartly sunny.7 mph81%30.24 "HgN/A
8:30 AM34 °FBroken clouds.6 mph87%30.24 "HgN/A
8:00 AM34 °FPartly cloudy.6 mph87%30.24 "HgN/A
Weather by CustomWeather, © 2014

See weather overviewHow to use our weather pages